SCP
0 0 0 0 0 0 0 0 0 0 0 0 0 0 0 0 0 0 0 0 0 0 0 0 0 -0 0 0 0 0 0 0
0 0 0 0 0 0 0 0 0 0 0 0 0 0 0 0 0 0 0 0 0 0 0 0 0 0 0 0 0 0 0 -0
0 0 0 0 0 0 0 0 0 0 0 0 0 0 0 0 0 0 0 -0 -0 -0 -0 -0 0 0 0 0 0 0 0 -0
0 0 0 0 0 0 0 0 0 0 -0 -0 -0 0 0 0 0 0 0 0 0 0 0 0 -0 0 0 0 0 0 0 0
0 0 0 0 0 0 0 0 0 -0 -0 -0 0 0 0 0 0 0 0 0 0 0 0 0 0 0 0 0 0 0 0 0
0 0 0 0 -0 -0 -0 0 0 -0 -0 -0 0 0 -0 0 0 -0 0 0 0 0 -0 0 0 0 0 0 0 0 0 0
0 0 0 -0 -0 0 0 0 -0 -0 -0 -0 0 -0 -0 -0 -0 -0 -0 -0 -0 -0 -0 0 0 0 0 0 0 0 -0 -0
0 0 -0 0 0 -0 -0 -0 0 -0 -0 -0 0 0 -0 -0 -0 -0 0 -0 0 0 0 -0 0 -0 -0 -0 -0 -0 0 0
0 0 -0 0 0 -0 0 0 -0 -0 -0 0 0 0 0 0 0 0 0 0 -0 -0 0 -0 0 -0 0 0 -0 -0 -0 -0
-0 -0 -0 0 0 0 0 -0 -0 0 0 0 0 -0 0 0 -0 -0 -0 -0 -0 -0 -0 -0 -0 -0 -0 -0 -0 -0 -0 -0
-0 -0 -0 0 -0 -0 -0 0 0 0 0 -0 -0 0 -0 -0 -0 -0 -0 -0 -0 -0 -0 -0 -0 -0 0 0 0 0 0 0
-0 0 -0 -0 0 0 0 0 0 0 0 -0 -0 -0 -0 -0 -0 -0 -0 -0 -0 -0 -0 -0 0 0 -0 -0 -0 0 0 0
-0 0 0 0 0 0 0 0 0 0 0 -0 -0 -0 -0 -0 -0 -0 -0 -0 -0 -0 -0 0 -0 0 0 0 0 0 0 0
0 0 0 0 0 0 0 0 0 0 -0 -0 -0 -0 -0 -0 0 0 -0 -0 -0 0 0 -0 0 0 -0 -0 -0 -0 -0 0
0 0 0 0 0 0 0 0 0 -0 -0 -0 -0 -0 -0 -0 0 0 0 0 0 0 0 0 0 0 -0 -0 0 0 0 -0
-0 -0 0 0 0 0 0 0 0 -0 -0 0 -0 -0 -0 0 0 0 0 0 0 0 0 0 0 0 0 0 0 0 0 0
-0 0 0 0 0 0 0 0 0 -0 -0 -0 0 0 0 0 0 0 0 0 0 0 0 0 0 0 0 0 0 0 0 0
0 0 0 0 0 0 0 0 0 0 0 0 0 0 0 0 0 0 0 0 0 0 0 0 0 0 0 0 0 0 0 0
0 0 0 0 0 0 0 0 0 0 0 0 0 0 0 0 0 0 0 0 0 0 0 0 0 0 0 0 0 0 0 0
0 0 0 0 0 0 0 0 0 0 0 0 0 0 0 0 0 0 0 0 0 0 0 0 0 0 0 0 0 0 0 0
Wind_Speed_500mb
25 26 27 31 34 35 37 37 39 39 41 43 40 38 35 32 32 32 29 28 24 28 29 31 27 22 24 22 20 18 22 25
23 23 26 30 34 32 34 35 35 36 38 35 32 30 29 28 30 31 29 26 26 26 27 27 22 19 14 10 16 19 22 26
23 23 25 29 33 29 34 31 35 34 34 33 28 31 27 28 28 28 27 25 25 26 26 23 23 20 20 20 21 20 21 22
20 19 21 27 27 30 32 29 28 31 32 31 29 27 28 30 33 31 26 25 23 25 25 26 24 18 23 24 25 16 16 13
19 18 22 27 22 28 27 27 30 29 34 36 36 32 26 30 26 25 25 22 20 27 30 30 29 26 21 15 11 5 13 16
19 20 26 24 23 24 24 25 29 33 31 33 30 28 29 31 31 32 32 32 37 44 47 46 44 47 46 37 29 28 32 29
17 22 24 19 20 22 23 25 30 28 32 34 31 33 34 35 39 42 45 43 39 41 44 47 45 52 51 47 42 38 33 28
19 23 20 20 20 20 21 25 28 29 31 29 25 27 32 34 34 36 40 42 43 43 44 48 52 53 49 42 34 27 30 26
20 19 20 21 17 18 18 21 25 26 26 30 32 33 39 43 42 39 42 38 36 36 34 34 34 36 37 38 34 27 26 25
19 18 18 18 19 19 22 22 22 25 28 31 35 36 31 32 34 32 32 29 33 34 34 32 32 30 44 41 39 36 27 26
18 21 26 23 18 17 22 25 27 36 35 34 31 33 30 30 30 32 30 32 33 32 34 34 33 29 31 42 41 41 36 27
19 23 27 34 31 34 37 42 39 33 32 30 28 29 30 30 29 32 32 31 31 31 31 30 30 32 34 30 27 25 28 23
20 20 20 27 29 29 27 31 26 28 28 26 27 27 28 30 39 40 33 39 38 31 25 28 25 27 38 40 36 28 24 29
20 21 20 21 22 22 22 24 25 26 25 25 24 22 22 22 23 29 35 37 36 36 33 27 24 30 31 31 32 30 28 32
19 18 20 21 21 20 20 22 22 24 23 21 20 21 20 20 20 19 22 27 33 39 38 38 37 35 30 28 30 35 39 33
17 18 19 19 18 17 18 17 18 19 19 23 17 17 18 18 18 19 19 19 20 22 32 34 34 34 32 29 35 30 32 35
17 16 16 14 12 11 11 13 12 15 16 14 16 16 16 18 17 19 19 20 20 21 21 25 33 35 42 43 39 32 34 35
15 12 10 8 7 6 7 6 5 8 11 15 18 15 16 16 17 17 18 18 19 21 23 24 19 26 27 29 31 33 33 35
14 8 7 8 9 14 16 12 7 5 6 9 17 14 15 15 15 16 16 17 18 19 21 30 30 26 25 27 29 31 34 35
13 7 5 8 13 14 16 16 12 7 5 6 8 11 11 11 11 13 14 16 17 17 18 21 31 21 22 24 26 29 31 33
Wind_Direction_500mb
344 344 345 343 345 342 342 340 337 335 333 336 335 335 334 332 332 334 341 341 328 324 336 328 320 293 295 277 282 291 303 304
343 343 345 346 345 339 342 339 341 340 342 345 342 341 341 337 335 338 339 341 337 339 341 349 355 13 347 326 317 310 306 308
344 343 344 344 346 341 344 347 345 350 350 351 349 344 353 356 354 353 349 344 339 345 343 340 340 338 316 316 315 316 310 314
337 338 337 342 351 347 352 350 353 351 357 353 349 346 347 347 347 346 349 352 3 352 346 346 335 329 312 313 314 311 321 323
339 338 339 345 351 347 349 351 349 356 5 1 12 13 10 358 8 6 14 14 9 17 20 20 20 12 360 351 9 2 316 326
339 335 339 348 357 340 350 349 351 5 14 12 12 11 18 26 29 35 44 47 56 59 52 50 52 49 47 51 58 60 64 64
334 335 340 352 352 343 347 349 1 8 8 17 25 35 42 46 51 59 63 65 57 52 49 57 63 58 53 57 65 64 56 52
341 342 356 356 348 346 350 8 16 21 27 29 38 52 63 59 59 60 56 62 58 53 54 58 57 59 52 50 56 34 36 36
346 359 1 357 1 7 15 22 29 34 41 54 64 68 67 58 54 60 63 45 45 48 48 47 45 47 33 36 38 39 40 28
12 20 25 21 22 27 38 40 45 51 66 60 64 66 49 48 51 50 45 42 42 48 50 48 40 39 42 39 40 39 47 33
52 46 48 47 40 58 70 63 70 82 74 70 62 52 49 46 42 43 43 46 48 46 47 45 42 38 25 15 18 19 35 36
75 68 54 51 62 74 79 73 75 73 67 64 56 50 48 50 54 51 46 48 44 41 42 41 37 34 36 30 23 20 22 24
71 60 56 66 81 76 69 66 68 65 61 60 60 58 62 53 59 57 52 48 44 43 48 34 43 32 29 27 28 36 36 38
75 70 77 81 84 82 73 68 66 65 62 58 61 60 56 56 48 49 50 44 39 41 45 52 27 34 29 29 35 33 46 51
87 87 91 91 90 84 77 70 61 56 52 56 51 55 52 50 45 37 26 9 14 34 43 45 45 41 39 41 43 32 34 40
102 98 96 92 92 84 78 63 52 45 43 45 53 50 43 38 35 32 28 27 29 23 29 38 43 42 39 40 52 36 29 28
111 102 97 95 86 74 60 46 39 43 50 49 47 38 34 38 34 35 37 38 39 35 30 17 16 26 24 24 35 32 27 22
123 120 100 81 57 21 7 4 9 34 28 47 57 39 35 36 37 38 36 36 36 34 29 25 28 25 26 26 27 28 27 21
151 134 106 69 56 61 63 68 65 71 55 30 51 32 30 34 34 36 34 34 31 29 23 27 45 37 29 29 29 28 24 20
169 163 134 86 76 74 65 67 76 61 54 50 36 24 23 24 41 31 31 29 28 28 24 12 40 34 34 31 30 27 24 20
Wind_Speed_850mb
25 26 27 31 34 35 37 37 39 39 41 43 40 38 35 32 32 32 29 28 24 28 29 31 27 22 24 22 20 18 22 25
23 23 26 30 34 32 34 35 35 36 38 35 32 30 29 28 30 31 29 26 26 26 27 27 22 19 14 10 16 19 22 26
23 23 25 29 33 29 34 31 35 34 34 33 28 31 27 28 28 28 27 25 25 26 26 23 23 20 20 20 21 20 21 22
20 19 21 27 27 30 32 29 28 31 32 31 29 27 28 30 33 31 26 25 23 25 25 26 24 18 23 24 25 16 16 13
19 18 22 27 22 28 27 27 30 29 34 36 36 32 26 30 26 25 25 22 20 27 30 30 29 26 21 15 11 5 13 16
19 20 26 24 23 24 24 25 29 33 31 33 30 28 29 31 31 32 32 32 37 44 47 46 44 47 46 37 29 28 32 29
17 22 24 19 20 22 23 25 30 28 32 34 31 33 34 35 39 42 45 43 39 41 44 47 45 52 51 47 42 38 33 28
19 23 20 20 20 20 21 25 28 29 31 29 25 27 32 34 34 36 40 42 43 43 44 48 52 53 49 42 34 27 30 26
20 19 20 21 17 18 18 21 25 26 26 30 32 33 39 43 42 39 42 38 36 36 34 34 34 36 37 38 34 27 26 25
19 18 18 18 19 19 22 22 22 25 28 31 35 36 31 32 34 32 32 29 33 34 34 32 32 30 44 41 39 36 27 26
18 21 26 23 18 17 22 25 27 36 35 34 31 33 30 30 30 32 30 32 33 32 34 34 33 29 31 42 41 41 36 27
19 23 27 34 31 34 37 42 39 33 32 30 28 29 30 30 29 32 32 31 31 31 31 30 30 32 34 30 27 25 28 23
20 20 20 27 29 29 27 31 26 28 28 26 27 27 28 30 39 40 33 39 38 31 25 28 25 27 38 40 36 28 24 29
20 21 20 21 22 22 22 24 25 26 25 25 24 22 22 22 23 29 35 37 36 36 33 27 24 30 31 31 32 30 28 32
19 18 20 21 21 20 20 22 22 24 23 21 20 21 20 20 20 19 22 27 33 39 38 38 37 35 30 28 30 35 39 33
17 18 19 19 18 17 18 17 18 19 19 23 17 17 18 18 18 19 19 19 20 22 32 34 34 34 32 29 35 30 32 35
17 16 16 14 12 11 11 13 12 15 16 14 16 16 16 18 17 19 19 20 20 21 21 25 33 35 42 43 39 32 34 35
15 12 10 8 7 6 7 6 5 8 11 15 18 15 16 16 17 17 18 18 19 21 23 24 19 26 27 29 31 33 33 35
14 8 7 8 9 14 16 12 7 5 6 9 17 14 15 15 15 16 16 17 18 19 21 30 30 26 25 27 29 31 34 35
13 7 5 8 13 14 16 16 12 7 5 6 8 11 11 11 11 13 14 16 17 17 18 21 31 21 22 24 26 29 31 33
Wind_Direction_850mb
344 344 345 343 345 342 342 340 337 335 333 336 335 335 334 332 332 334 341 341 328 324 336 328 320 293 295 277 282 291 303 304
343 343 345 346 345 339 342 339 341 340 342 345 342 341 341 337 335 338 339 341 337 339 341 349 355 13 347 326 317 310 306 308
344 343 344 344 346 341 344 347 345 350 350 351 349 344 353 356 354 353 349 344 339 345 343 340 340 338 316 316 315 316 310 314
337 338 337 342 351 347 352 350 353 351 357 353 349 346 347 347 347 346 349 352 3 352 346 346 335 329 312 313 314 311 321 323
339 338 339 345 351 347 349 351 349 356 5 1 12 13 10 358 8 6 14 14 9 17 20 20 20 12 360 351 9 2 316 326
339 335 339 348 357 340 350 349 351 5 14 12 12 11 18 26 29 35 44 47 56 59 52 50 52 49 47 51 58 60 64 64
334 335 340 352 352 343 347 349 1 8 8 17 25 35 42 46 51 59 63 65 57 52 49 57 63 58 53 57 65 64 56 52
341 342 356 356 348 346 350 8 16 21 27 29 38 52 63 59 59 60 56 62 58 53 54 58 57 59 52 50 56 34 36 36
346 359 1 357 1 7 15 22 29 34 41 54 64 68 67 58 54 60 63 45 45 48 48 47 45 47 33 36 38 39 40 28
12 20 25 21 22 27 38 40 45 51 66 60 64 66 49 48 51 50 45 42 42 48 50 48 40 39 42 39 40 39 47 33
52 46 48 47 40 58 70 63 70 82 74 70 62 52 49 46 42 43 43 46 48 46 47 45 42 38 25 15 18 19 35 36
75 68 54 51 62 74 79 73 75 73 67 64 56 50 48 50 54 51 46 48 44 41 42 41 37 34 36 30 23 20 22 24
71 60 56 66 81 76 69 66 68 65 61 60 60 58 62 53 59 57 52 48 44 43 48 34 43 32 29 27 28 36 36 38
75 70 77 81 84 82 73 68 66 65 62 58 61 60 56 56 48 49 50 44 39 41 45 52 27 34 29 29 35 33 46 51
87 87 91 91 90 84 77 70 61 56 52 56 51 55 52 50 45 37 26 9 14 34 43 45 45 41 39 41 43 32 34 40
102 98 96 92 92 84 78 63 52 45 43 45 53 50 43 38 35 32 28 27 29 23 29 38 43 42 39 40 52 36 29 28
111 102 97 95 86 74 60 46 39 43 50 49 47 38 34 38 34 35 37 38 39 35 30 17 16 26 24 24 35 32 27 22
123 120 100 81 57 21 7 4 9 34 28 47 57 39 35 36 37 38 36 36 36 34 29 25 28 25 26 26 27 28 27 21
151 134 106 69 56 61 63 68 65 71 55 30 51 32 30 34 34 36 34 34 31 29 23 27 45 37 29 29 29 28 24 20
169 163 134 86 76 74 65 67 76 61 54 50 36 24 23 24 41 31 31 29 28 28 24 12 40 34 34 31 30 27 24 20